Weather History for Ann Arbor, MI

Change the Weather History Date:

Saturday, January 26, 2013

  Actual Average Record
Temperature  
Mean Temperature 18 °F -  
Max Temperature 25 °F 27 °F 51 °F (2002)
Min Temperature 12 °F 10 °F -9 °F (2009)
Degree Days  
Heating Degree Days 46    
Moisture  
Dew Point 15 °F    
Average Humidity 80    
Maximum Humidity 96    
Minimum Humidity 59    
Precipitation  
Precipitation 0.00 in - - ()
Sea Level Pressure  
Sea Level Pressure 30.27 in    
Wind  
Wind Speed 4 mph (WNW)    
Max Wind Speed 10 mph    
Max Gust Speed -    
Visibility 8 miles    
Events Snow    
Averages and records for this station are not official NWS values.
T = Trace of Precipitation, MM = Missing Value Source: NWS Daily Summary

Daily Weather History Graph

Daily Weather History Graph

Search for Another Location

Airport:

Trip Planner

Search our weather history database for the weather conditions in past years. The results will help you decide how hot, cold, wet, or windy it might be!

Date:

Astronomy

Jan. 26, 2013 Rise Set
Actual Time 7:53 AM EST 5:41 PM EST
Civil Twilight 7:23 AM EST 6:12 PM EST
Nautical Twilight 6:49 AM EST 6:46 PM EST
Astronomical Twilight 6:16 AM EST 7:19 PM EST
Moon 5:36 PM EST (1/26) 7:10 AM EST (1/26)
Length of Visible Light 10h 48m
Length of Day
9h 48m
Full, 100% of the Moon is Illuminated
Jan 26
Full
Jan 26
Full
Feb 3
Last Quarter
Feb 10
New
Feb 17
First Quarter

Hourly Weather History & Observations

Time (EST) Temp. Windchill Dew Point Humidity Pressure Visibility Wind Dir Wind Speed Gust Speed Precip Events Conditions
12:28 AM 19.4 °F - 17.6 °F 93% 30.02 in 5.0 mi Calm Calm - 0.00 in   Overcast
12:53 AM 18.0 °F - 16.0 °F 92% 30.07 in 5.0 mi Calm Calm - 0.00 in   Overcast
1:13 AM 17.6 °F - 15.8 °F 93% 30.03 in 5.0 mi Calm Calm - N/A   Overcast
1:53 AM 18.0 °F - 17.1 °F 96% 30.07 in 5.0 mi Calm Calm - N/A   Overcast
2:53 AM 18.0 °F - 15.1 °F 88% 30.10 in 5.0 mi Calm Calm - N/A   Overcast
3:53 AM 21.0 °F 12.4 °F 18.0 °F 88% 30.12 in 7.0 mi WNW 6.9 mph - N/A   Overcast
4:53 AM 21.0 °F 11.4 °F 17.1 °F 85% 30.13 in 6.0 mi WNW 8.1 mph - 0.00 in Snow Light Snow
5:53 AM 21.0 °F 12.4 °F 17.1 °F 85% 30.15 in 9.0 mi WNW 6.9 mph - 0.00 in   Overcast
6:53 AM 21.0 °F 11.4 °F 17.1 °F 85% 30.19 in 8.0 mi WNW 8.1 mph - N/A   Overcast
7:53 AM 21.0 °F 14.6 °F 16.0 °F 81% 30.21 in 9.0 mi NW 4.6 mph - N/A   Overcast
8:53 AM 21.0 °F 12.4 °F 16.0 °F 81% 30.24 in 4.0 mi WNW 6.9 mph - 0.00 in Snow Light Snow
9:53 AM 21.0 °F 11.4 °F 17.1 °F 85% 30.26 in 5.0 mi West 8.1 mph - 0.00 in Snow Light Snow
10:33 AM 21.2 °F 10.9 °F 15.8 °F 80% 30.24 in 8.0 mi WNW 9.2 mph - 0.00 in   Overcast
10:48 AM 21.2 °F 11.7 °F 15.8 °F 80% 30.25 in 9.0 mi NW 8.1 mph - 0.00 in   Overcast
10:53 AM 21.9 °F 11.7 °F 15.1 °F 75% 30.29 in 10.0 mi NW 9.2 mph - 0.00 in   Overcast
11:41 AM 23.0 °F 12.4 °F 12.2 °F 63% 30.27 in 10.0 mi WNW 10.4 mph - N/A   Mostly Cloudy
11:53 AM 23.0 °F 15.8 °F 14.0 °F 68% 30.31 in 4.0 mi NNW 5.8 mph - 0.00 in Snow Light Snow
12:18 PM 24.8 °F 15.3 °F 12.2 °F 59% 30.27 in 10.0 mi NW 9.2 mph - 0.00 in   Overcast
12:53 PM 24.1 °F 15.2 °F 14.0 °F 65% 30.31 in 10.0 mi NW 8.1 mph - 0.00 in   Mostly Cloudy
1:53 PM 25.0 °F 17.1 °F 12.9 °F 60% 30.32 in 10.0 mi NW 6.9 mph - N/A   Overcast
2:53 PM 25.0 °F 16.3 °F 14.0 °F 63% 30.33 in 10.0 mi NW 8.1 mph - N/A   Overcast
3:53 PM 25.0 °F 15.5 °F 14.0 °F 63% 30.35 in 10.0 mi NNW 9.2 mph - N/A   Overcast
4:53 PM 25.0 °F 18.1 °F 15.1 °F 66% 30.38 in 10.0 mi WNW 5.8 mph - N/A   Overcast
5:53 PM 24.1 °F 19.7 °F 17.1 °F 75% 30.39 in 10.0 mi West 3.5 mph - N/A   Overcast
6:53 PM 23.0 °F 18.4 °F 17.1 °F 78% 30.43 in 10.0 mi West 3.5 mph - N/A   Overcast
7:53 PM 17.1 °F - 14.0 °F 88% 30.43 in 10.0 mi Calm Calm - N/A   Partly Cloudy
8:53 PM 17.1 °F - 15.1 °F 92% 30.43 in 10.0 mi Calm Calm - N/A   Clear
9:53 PM 12.0 °F - 9.0 °F 88% 30.45 in 9.0 mi Calm Calm - N/A   Clear
10:53 PM 14.0 °F - 12.0 °F 92% 30.45 in 8.0 mi Calm Calm - N/A   Clear
11:53 PM 14.0 °F - 10.9 °F 88% 30.48 in 9.0 mi Calm Calm - N/A   Clear